Location: Old Brownfield
(37.3589°N, 88.5964°W)
Time: 00:55:06
(UTC+00:00)

Daily predictions for brighter satellites

Satellite Brightness Start Highest point End
(mag) Time Altitude Azimuth Time Altitude Azimuth Time Altitude Azimuth
Cosmos 158 Rocket 4.0 00:01:03 10° S 00:06:18 63° ESE 00:10:45 14° NNE
DELTA 2 R/B (1) 4.4 00:02:50 10° SW 00:07:56 37° SSE 00:10:13 26° ESE
TELKOM 3 3.6 00:07:01 10° WNW 00:09:01 46° SW 00:09:01 46° SW
Cosmos 2112 Rocket 4.1 00:04:37 10° SSW 00:09:48 75° WNW 00:15:02 10° NNE
Cosmos 1606 3.5 00:09:11 10° SSE 00:11:43 31° SE 00:11:43 31° SE
Cosmos 1680 Rocket 4.2 00:11:11 10° SSW 00:16:16 55° WNW 00:21:25 10° N
BREEZE-M DEB (TANK) 3.1 00:13:21 10° WSW 00:19:00 46° NNW 00:20:02 34° NNE
SKYMED 2 4.2 00:17:22 10° N 00:21:38 56° WNW 00:25:52 10° SSW
PSLV R/B 3.9 00:19:21 10° WNW 00:21:04 38° WNW 00:21:04 38° WNW
Okean-O 4.2 00:20:47 10° SSW 00:24:51 36° W 00:28:57 10° NNW
NOAA 11 4.3 00:21:41 10° SE 00:26:53 50° ENE 00:32:07 10° N
CSL-04 Debris 4.1 00:23:08 10° SSE 00:28:37 79° ENE 00:34:07 10° N
Meteor 1-25 Rocket 4.4 00:33:19 10° N 00:38:13 48° ENE 00:38:13 48° ENE
SL-8 R/B 3.5 00:37:42 10° SW 00:42:32 86° NNW 00:42:59 74° NE
Meteor 1-20 Rocket 4.3 00:37:12 10° N 00:42:34 53° ENE 00:42:34 53° ENE
CSL-04 Rocket 3.7 00:37:52 10° S 00:43:14 78° WSW 00:48:34 10° NNW
ATLAS 5 CENTAUR R/B 4.1 00:42:04 10° SSW 00:46:41 23° SSE 00:50:46 19° SE
Cosmos 2228 Rocket 3.1 00:45:02 10° S 00:49:27 80° W 00:49:42 76° NW
Hubble Space Telescope 3.3 00:48:55 10° SSW 00:49:56 13° S 00:49:56 13° S
Cosmos 1624 Rocket 3.9 00:46:00 10° NNW 00:51:22 86° WSW 00:53:50 33° SSE
Cosmos 2056 Rocket 3.3 00:46:52 10° NNW 00:52:02 88° WSW 00:53:24 50° SSE
SL-16 R/B 2.6 00:47:21 10° S 00:51:33 44° SSE 00:51:33 44° SSE
COSMOS 2455 4.2 00:50:03 10° S 00:52:36 24° SSE 00:52:36 24° SSE
Cosmos 1980 Rocket 3.4 00:51:05 10° SW 00:56:21 40° WNW 01:00:40 15° N
CZ-4 R/B 3.2 00:54:22 10° SSW 00:58:06 32° W 01:01:47 10° NNW
BREEZE-M DEB (TANK) 4.3 00:53:36 10° SW 00:58:39 85° SE 01:07:26 30° NE
Cosmos 2322 Rocket 3.2 00:55:54 10° S 00:58:56 32° SSE 00:58:56 32° SSE
SeaSat 1 4.3 01:04:47 10° SSW 01:09:00 29° WSW 01:13:16 10° NW
Cosmos 1634 Rocket 4.0 01:08:11 10° N 01:14:22 78° W 01:20:30 10° S
USA 215 4.3 01:24:11 31° N 01:24:11 31° N 01:28:15 10° NNW
Cosmos 2263 Rocket 3.8 01:20:03 10° NNW 01:22:05 23° NNW 01:22:05 23° NNW
Centaur D-1A AC-31 3.9 01:52:01 10° SW 01:52:50 17° SW 01:52:50 17° SW
ATLAS CENTAUR R/B 4.2 09:39:21 15° SE 09:41:24 19° ESE 09:44:49 10° ENE
SL-16 R/B 4.5 09:45:02 11° NNE 09:48:39 19° NE 09:52:40 10° E
Cosmos 1980 Rocket 2.8 09:53:21 53° ESE 09:53:21 53° ESE 09:57:47 10° SSE
Cosmos 1937 Rocket 4.5 09:53:28 42° ENE 09:53:28 42° ENE 09:57:26 10° NNE
Cosmos 2322 Rocket 4.5 09:52:50 10° N 09:56:50 19° NE 10:00:51 10° E
ATLAS 2AS CENTAUR R/B 4.3 09:58:56 15° N 10:04:03 30° NE 10:10:10 10° ESE
CZ-3B R/B 3.7 10:12:44 19° SSW 10:14:34 21° S 10:18:25 10° SE
SL-4 R/B 4.3 10:16:25 20° NNE 10:16:39 20° NNE 10:20:12 10° ENE
SJ 16-02 3.8 10:22:23 12° NNE 10:22:23 12° NNE 10:22:47 10° NNE
Okean 3 Rocket 4.3 10:16:03 10° S 10:20:26 52° E 10:24:48 10° NNE
STARLINK-21 4.4 10:23:33 49° ENE 10:23:33 49° ENE 10:26:40 10° NE
PAYLOAD A 4.3 10:18:04 10° N 10:22:29 59° NNW 10:22:29 59° NNW
STARLINK-45 4.4 10:26:09 47° NE 10:26:09 47° NE 10:29:10 10° NE
Cosmos 2100 Rocket 4.4 10:19:24 10° S 10:25:29 63° E 10:31:33 10° NNE
Lacrosse 5 4.0 10:28:33 14° N 10:28:33 14° N 10:29:48 10° NNE
STARLINK-76 4.1 10:28:45 55° ENE 10:28:45 55° ENE 10:32:04 10° NE
STARLINK 4.0 10:30:22 58° NE 10:30:22 58° NE 10:33:45 10° NE
Meteor 2-20 4.4 10:23:31 10° N 10:29:43 87° E 10:35:51 10° S
STARLINK-32 4.0 10:31:59 60° NE 10:31:59 60° NE 10:35:25 10° NE
Cosmos 1447 Rocket 4.4 10:25:13 10° N 10:31:35 78° W 10:37:52 10° S
STARLINK-40 3.9 10:33:36 62° NE 10:33:36 62° NE 10:37:06 10° NE
Cosmos 158 Rocket 3.8 10:32:06 51° N 10:33:19 83° ENE 10:38:11 10° SSE
STARLINK-44 3.8 10:35:13 64° NE 10:35:13 64° NE 10:38:47 10° NE
STARLINK-36 3.8 10:36:49 66° NNE 10:36:49 66° NNE 10:40:26 10° NE
Cosmos 2112 Rocket 4.1 10:40:31 53° WSW 10:40:31 53° WSW 10:45:30 10° S
ALOS 4.2 10:37:11 10° NE 10:41:17 30° E 10:45:23 10° SSE
CZ-2C R/B 2.8 10:37:56 10° N 10:41:22 42° NNW 10:41:22 42° NNW
STARLINK-35 3.6 10:43:07 68° N 10:43:07 68° N 10:46:59 10° NE
Cosmos 1802 Rocket 4.4 10:36:50 10° S 10:43:10 66° E 10:49:32 10° NNE
STARLINK-51 3.6 10:44:47 67° NNW 10:44:47 67° NNW 10:48:42 10° NE
STARLINK-30 3.6 10:46:24 66° NNW 10:46:24 66° NNW 10:50:22 10° NE
Cosmos 1680 Rocket 4.2 10:47:40 34° SW 10:47:40 34° SW 10:51:26 10° SSW
ASTEX 1 3.3 10:41:55 10° S 10:46:49 63° W 10:51:15 13° NNW
STARLINK-33 3.6 10:47:58 64° NNW 10:47:58 64° NNW 10:52:00 10° NE
STARLINK-50 3.6 10:49:33 62° NW 10:49:33 62° NW 10:53:38 10° NE
Cosmos 2298 Rocket 4.1 10:46:06 10° S 10:51:23 76° ESE 10:56:42 10° NNE
In-Cosmos 22 Rocket 4.0 10:46:59 10° SSW 10:52:17 64° W 10:57:44 10° N
STARLINK-56 3.6 10:52:43 58° NW 10:52:49 58° NW 10:56:55 10° NE
STARLINK-26 3.8 10:53:11 49° NNW 10:53:11 49° NNW 10:56:58 10° NE
STARLINK-61 4.4 10:54:31 34° NNW 10:54:31 34° NNW 10:57:40 10° NNE
Starlink (trailer) 3.6 10:54:32 55° NW 10:54:42 56° NW 10:58:48 10° NE
STARLINK-38 3.7 10:55:58 53° NW 10:56:12 54° NW 11:00:16 10° NE
Cosmos 2082 Rocket 4.3 10:59:37 11° NNW 10:59:37 11° NNW 11:00:09 10° NNW
Cosmos 2173 Rocket 3.9 10:51:10 10° S 10:57:26 78° W 11:03:39 10° N
STARLINK-65 3.7 10:57:36 51° NW 10:57:54 53° NW 11:01:58 10° NE
Cosmos 2061 Rocket 4.1 10:53:12 10° S 10:59:26 78° E 11:05:39 10° N
SJ-12 4.5 10:55:40 10° NNE 10:59:46 60° E 11:03:51 10° S
Cosmos 1408 2.6 10:58:44 10° S 11:02:25 79° E 11:06:06 10° N
STARLINK-69 3.9 11:02:23 44° WNW 11:02:51 47° NW 11:06:52 10° NE
Okean O Rocket 3.0 10:59:16 10° NNE 11:03:22 40° E 11:07:26 10° S
Abrixas rocket 2.9 11:04:26 36° N 11:04:26 36° N 11:06:43 10° NE
OAO 2 Rocket 3.7 11:01:48 33° WSW 11:03:50 55° SSW 11:08:47 10° ESE
PSLV R/B 3.6 11:00:12 10° N 11:04:06 78° WNW 11:08:05 10° SSW
STARLINK-66 3.9 11:04:02 43° WNW 11:04:36 46° NW 11:08:36 10° NE
Meteor PRIRODA 3.6 11:01:21 10° N 11:04:57 57° WNW 11:08:31 10° SSW
STARLINK-41 3.9 11:05:31 41° WNW 11:06:09 45° NW 11:10:09 10° NE
CZ-4B DEB 4.4 11:02:10 10° NNE 11:07:39 75° ESE 11:13:08 10° S
STARLINK-64 4.0 11:07:11 39° WNW 11:07:52 43° NW 11:11:49 10° NE
STARLINK-70 4.0 11:08:43 38° WNW 11:09:29 42° NW 11:13:27 10° NE
STARLINK-68 4.1 11:10:32 35° WNW 11:11:18 39° NW 11:15:13 10° NE
Cosmos 1151 Rocket 3.3 11:07:01 10° N 11:11:22 69° E 11:15:40 10° SSE
Cosmos 1437 3.7 11:09:35 10° S 11:12:29 45° E 11:15:26 10° NNE
STARLINK-58 4.1 11:11:47 35° WNW 11:12:39 39° NW 11:16:34 10° NE
SKYMED 2 3.6 11:09:49 10° SSE 11:14:09 86° ENE 11:18:31 10° N
STARLINK-62 4.2 11:13:41 33° WNW 11:14:35 37° NW 11:18:28 10° NE
NOSS 3-4 (A) 4.4 11:08:29 10° NNW 11:15:32 59° NE 11:23:11 10° SE
NOSS 3-4 (C) 4.4 11:08:36 10° NNW 11:15:38 58° NE 11:23:17 10° SE
STARLINK-63 4.2 11:15:10 32° WNW 11:16:12 37° NW 11:20:05 10° NE
Cosmos 1328 Rocket 3.5 11:12:41 10° N 11:17:02 88° E 11:21:20 10° S
STARLINK 4.1 11:16:25 31° WNW 11:17:40 39° NW 11:21:35 10° NE
BREEZE-M DEB (TANK) 2.8 11:17:43 31° NW 11:19:02 87° NE 11:25:34 10° SE
STARLINK-72 4.2 11:18:13 29° WNW 11:19:27 37° NW 11:23:19 10° NNE
Cosmos 1515 Rocket 4.3 11:15:32 10° N 11:19:47 55° E 11:24:02 10° SSE
ATLAS CENTAUR R/B 2.0 11:15:44 13° SW 11:20:01 48° NW 11:24:43 10° NNE
Cosmos 1743 Rocket 4.2 11:16:03 10° S 11:20:17 57° E 11:24:32 10° NNE
STARLINK-59 4.4 11:21:34 27° WNW 11:22:53 33° NW 11:26:42 10° NNE
Cosmos 1933 4.3 11:20:22 10° N 11:24:17 49° E 11:28:10 10° SSE
STARLINK-57 4.4 11:23:12 26° WNW 11:24:37 33° NNW 11:28:23 10° NNE
Cosmos 1833 4.3 11:19:04 10° SSW 11:24:40 78° ESE 11:30:18 10° NNE
COBE Rocket 4.3 11:21:48 10° SSW 11:26:40 42° W 11:31:29 10° NNW
Cosmos 2360 Rocket 3.0 11:24:39 10° NNW 11:30:13 54° ENE 11:35:45 10° SE
OAO 3 Rocket 3.6 11:27:10 19° W 11:30:25 55° SSW 11:35:05 10° ESE
SL-16 R/B 2.3 11:27:35 10° NNW 11:33:09 59° WSW 11:38:41 10° S
Cosmos 1980 Rocket 3.7 11:35:12 15° W 11:35:28 15° W 11:38:30 10° SW
Cosmos 1408 Rocket 3.9 11:32:42 10° SSW 11:36:46 41° W 11:40:53 10° N
Shenzhou-11 Module 1.6 11:36:35 24° WNW 11:38:02 88° NNE 11:40:44 10° ESE
Cosmos 2151 4.1 11:37:10 10° SW 11:40:30 22° WNW 11:43:51 10° NNW
Cosmos 2322 Rocket 2.3 11:35:43 10° NNW 11:41:17 59° WSW 11:46:50 10° S
Cosmos 1500 Rocket 3.5 11:39:13 10° S 11:43:40 83° W 11:48:09 10° N
COSMOS 2455 3.1 11:38:21 10° NW 11:44:04 47° WSW 11:49:46 10° S
BREEZE-M DEB (TANK) 3.2 11:33:56 11° NW 11:44:08 75° NNE 11:47:21 10° ESE
Cosmos 1606 2.8 11:41:35 10° N 11:45:24 77° E 11:49:12 10° S
Cosmos 1725 Rocket 4.1 11:42:00 10° SSW 11:48:07 57° W 11:54:20 10° N
Delta 2 Rocket 3.9 11:43:56 11° WSW 11:48:22 70° S 11:53:31 10° E
Meteor 2-3 Rocket 3.8 11:42:38 10° S 11:48:22 89° E 11:54:12 10° N
Cosmos 2016 Rocket 4.3 11:43:46 10° SSW 11:49:38 43° WNW 11:55:39 10° N
Cosmos 1125 Rocket 3.5 11:46:36 10° SSW 11:51:50 63° WNW 11:57:05 10° NNE
Cosmos 1484 Rocket 4.1 11:52:28 10° NNW 11:55:23 20° WNW 11:58:18 10° WSW
Cosmos 1825 3.0 11:52:22 10° SW 11:55:38 28° WNW 11:58:55 10° NNW
COSMOS 2487 3.8 11:53:57 10° WSW 11:56:27 19° WNW 11:58:58 10° NNW
